Location: *
(46.1866°S, 178.5290°W)
Time: 05:35:27
(UTC+00:00)

CZ-4B R/B - Pass Details

Date: 27 September 2021
Orbit: 809 x 881 km, 99.1° (Epoch: 17 October)

Event Time Altitude Azimuth Distance (km) Brightness Sun altitude
Rises 16:56:03 0° 43° (NE) 3,413 6.9 -7.0°
Reaches altitude 10° 16:58:35 10° 52° (NE) 2,474 6.3 -6.6°
Maximum altitude 17:03:30 35° 115° (ESE) 1,338 5.1 -5.8°
Drops below altitude 10° 17:08:23 10° 179° (S) 2,460 5.8 -4.9°
Sets 17:10:54 0° 187° (S) 3,391 6.4 -4.5°
